User: anonymous   Login
Location: Kailua
(21.4020°N, 157.7390°W)
Time: 19:42:46
(UTC-10:00)
Language:

Cosmos 2297 Rocket - Orbit

View from above orbital plane
View from above orbital plane
View from above satellite
View from above satellite

Ground track
Ground track

The orbit data is extracted from the following two-line orbital elements,

1 23405U 94077B   14354.24248171 -.00000234  00000-0 -95979-4 0  9991
2 23405 070.9842 328.4924 0005148 269.7483 183.7590 14.15130300 36780
Epoch (UTC): 20 December 2014 05:49:10
Eccentricity: 0.0005148
inclination: 70.9842°
perigee height: 838 km
apogee height: 845 km
right ascension of ascending node: 328.4924°
argument of perigee: 269.7483°
revolutions per day: 14.15130300
mean anomaly at epoch: 183.7590°
orbit number at epoch: 3678

The dashed part of the orbit path shows where the satellite is in the earth's shadow,  

DLR